Waynesville, MO

11:35 PM CDT on September 30, 2016 (GMT -0500)
Waynesville Regional At Forney Field

Weather History for KTBN - November, 2012

Change the Weather History Date:

Saturday, November 24, 2012

  Actual Average Record
Temperature  
Mean Temperature 32 °F -  
Max Temperature 44 °F 52 °F 73 °F (2006)
Min Temperature 20 °F 37 °F 10 °F (2013)
Degree Days  
Heating Degree Days 33    
Moisture  
Dew Point 17 °F    
Average Humidity 54    
Maximum Humidity 81    
Minimum Humidity 30    
Precipitation  
Precipitation 0.00 in - - ()
Sea Level Pressure  
Sea Level Pressure 30.24 in    
Wind  
Wind Speed 4 mph (SSW)    
Max Wind Speed 13 mph    
Max Gust Speed -    
Visibility 10 miles    
Events      
Averages and records for this station are not official NWS values.
T = Trace of Precipitation, MM = Missing Value Source: NWS Daily Summary

Daily Weather History Graph

Daily Weather History Graph

Search for Another Location

Airport or City:

Trip Planner

Search our weather history database for the weather conditions in past years. The results will help you decide how hot, cold, wet, or windy it might be!

Date:

Astronomy

Nov. 24, 2012 Rise Set
Actual Time 6:58 AM CST 4:51 PM CST
Civil Twilight 6:30 AM CST 5:20 PM CST
Nautical Twilight 5:57 AM CST 5:52 PM CST
Astronomical Twilight 5:26 AM CST 6:24 PM CST
Moon 2:34 PM CST (11/24) 3:19 AM CST (11/24)
Length of Visible Light 10h 50m
Length of Day
9h 53m
Waxing Gibbous, 87% of the Moon is Illuminated
Nov 24
Waxing Gibbous
Nov 28
Full
Dec 6
Last Quarter
Dec 13
New
Dec 19
First Quarter

Hourly Weather History & Observations

Time (CST) Temp. Windchill Dew Point Humidity Pressure Visibility Wind Dir Wind Speed Gust Speed Precip Events Conditions
12:55 AM 26.2 °F 20.7 °F 15.6 °F 64% 30.38 in 10.0 mi WNW 4.6 mph - N/A   Clear
1:55 AM 24.8 °F - 15.3 °F 67% 30.37 in 10.0 mi Calm Calm - N/A   Clear
2:55 AM 23.9 °F 18.0 °F 14.9 °F 69% 30.38 in 10.0 mi West 4.6 mph - N/A   Clear
3:55 AM 23.0 °F 17.0 °F 15.1 °F 72% 30.37 in 10.0 mi West 4.6 mph - N/A   Clear
4:55 AM 22.1 °F 15.9 °F 15.3 °F 75% 30.37 in 10.0 mi WNW 4.6 mph - N/A   Clear
5:55 AM 21.9 °F 17.2 °F 15.1 °F 75% 30.37 in 10.0 mi West 3.5 mph - N/A   Clear
6:55 AM 20.8 °F - 15.8 °F 81% 30.38 in 10.0 mi Calm Calm - N/A   Clear
7:55 AM 22.8 °F - 15.8 °F 74% 30.38 in 10.0 mi Calm Calm - N/A   Clear
8:55 AM 27.5 °F 22.2 °F 16.7 °F 64% 30.38 in 10.0 mi NW 4.6 mph - N/A   Clear
9:55 AM 30.9 °F 27.5 °F 17.2 °F 57% 30.37 in 8.0 mi Variable 3.5 mph - N/A   Clear
10:55 AM 34.2 °F 31.2 °F 16.7 °F 49% 30.34 in 10.0 mi Variable 3.5 mph - N/A   Clear
11:55 AM 36.9 °F - 16.2 °F 43% 30.30 in 10.0 mi Calm Calm - N/A   Clear
12:55 PM 41.4 °F - 13.6 °F 32% 30.26 in 10.0 mi Calm Calm - N/A   Mostly Cloudy
2:55 PM 44.4 °F 42.0 °F 14.5 °F 30% 30.19 in 10.0 mi South 4.6 mph - N/A   Clear
3:55 PM 44.1 °F 40.1 °F 14.4 °F 30% 30.17 in 10.0 mi South 6.9 mph - N/A   Clear
4:55 PM 41.2 °F 37.3 °F 17.8 °F 39% 30.14 in 10.0 mi SSE 5.8 mph - N/A   Mostly Cloudy
5:55 PM 38.7 °F 33.6 °F 18.3 °F 44% 30.12 in 10.0 mi SSE 6.9 mph - N/A   Clear
6:55 PM 38.3 °F 33.2 °F 19.2 °F 46% 30.10 in 10.0 mi SSE 6.9 mph - N/A   Clear
7:55 PM 37.9 °F 32.1 °F 19.4 °F 47% 30.08 in 10.0 mi South 8.1 mph - N/A   Clear
8:55 PM 37.8 °F 30.7 °F 18.9 °F 47% 30.05 in 10.0 mi South 10.4 mph - N/A   Clear
9:55 PM 38.3 °F 30.5 °F 18.3 °F 45% 30.04 in 10.0 mi South 12.7 mph - N/A   Clear
10:55 PM 38.1 °F 32.3 °F 17.6 °F 44% 30.04 in 10.0 mi South 8.1 mph - N/A   Clear
11:55 PM 39.4 °F 33.8 °F 18.3 °F 43% 30.02 in 10.0 mi South 8.1 mph - N/A   Clear